Vorticity
nan nan nan nan nan nan nan nan nan nan nan nan nan nan nan nan nan nan nan nan nan nan nan nan nan nan nan
nan 8 8 9 9 9 11 10 9 6 6 9 8 8 8 5 6 8 8 9 10 10 10 11 13 12 nan
nan 9 9 8 9 10 9 10 9 7 7 11 10 9 7 7 7 9 8 8 9 9 9 11 11 12 nan
nan 9 9 10 9 9 9 9 8 9 11 11 11 11 11 11 13 12 7 5 7 8 9 10 10 11 nan
nan 8 8 8 9 10 9 9 8 9 11 10 12 11 11 13 11 5 7 8 8 8 11 12 9 10 nan
nan 8 7 8 9 8 10 9 9 8 7 9 10 9 11 8 2 6 8 10 9 11 9 7 10 11 nan
nan 8 8 8 8 8 9 8 9 9 11 10 9 10 9 6 3 8 9 10 11 10 6 6 9 10 nan
nan 8 8 7 9 10 10 12 11 8 10 11 10 11 9 6 9 12 12 10 10 8 8 9 9 10 nan
nan 9 9 11 12 12 11 11 11 9 12 12 8 11 12 10 9 9 14 14 12 10 9 9 9 19 nan
nan 13 13 12 14 13 11 10 11 10 8 10 10 10 11 10 10 14 9 9 16 15 11 11 17 18 nan
nan 11 12 12 12 11 10 10 10 8 7 9 11 11 8 8 10 11 9 13 15 13 11 12 14 11 nan
nan 10 10 11 10 9 10 11 11 8 9 12 11 9 9 9 9 10 10 11 10 12 13 10 12 16 nan
nan 11 10 10 11 12 11 12 11 12 11 12 10 9 9 9 11 8 10 13 12 10 9 13 16 19 nan
nan 11 12 11 10 10 11 11 11 13 12 12 10 10 11 9 9 10 13 9 9 10 11 11 14 15 nan
nan 10 10 10 11 11 11 11 10 9 11 12 12 12 12 10 10 10 10 11 11 8 10 13 16 16 nan
nan 10 10 11 11 10 10 10 11 11 10 11 12 12 12 17 12 7 11 10 9 10 13 14 13 13 nan
nan nan nan nan nan nan nan nan nan nan nan nan nan nan nan nan nan nan nan nan nan nan nan nan nan nan nan
CAPE
0 0 0 0 0 0 0 0 0 0 0 0 0 0 0 1 2 1 2 4 3 3 3 4 11 3 1
0 0 0 0 0 0 0 0 0 0 0 0 0 0 0 0 0 0 0 0 0 0 1 3 4 16 9
0 0 0 0 0 0 0 0 0 0 0 0 0 0 1 0 0 0 0 0 0 1 3 6 7 7 11
0 0 0 0 0 0 0 0 0 0 0 1 2 4 1 0 0 1 0 0 0 0 1 3 7 9 14
0 0 1 2 3 4 7 8 8 11 6 3 6 3 0 0 1 4 0 0 1 1 2 5 9 9 10
1 2 3 6 10 13 28 33 28 18 34 12 15 5 0 1 0 0 3 6 6 3 12 7 4 1 3
7 6 8 13 20 27 32 43 38 21 45 45 24 41 40 9 1 4 6 7 8 11 12 4 3 2 7
10 15 17 20 33 37 31 24 24 15 33 49 15 34 38 31 5 7 11 9 14 22 16 7 4 2 1
1 1 14 22 15 9 9 17 22 13 17 51 33 53 37 25 12 6 10 2 18 30 22 7 3 5 3
13 3 0 0 0 0 6 18 19 11 18 55 59 53 17 9 9 17 21 10 14 16 11 9 8 31 26
1 0 0 0 1 2 8 26 13 6 21 57 30 54 73 61 26 35 41 39 43 20 10 5 12 22 25
1 1 3 6 12 13 8 9 20 21 14 19 33 72 63 45 34 31 40 44 43 35 14 11 12 19 21
7 13 19 23 13 16 22 18 17 5 6 11 40 40 71 16 19 53 48 28 27 36 15 27 30 15 22
20 14 9 19 30 36 37 30 24 30 20 8 20 35 16 44 53 19 26 45 38 9 28 28 9 4 6
3 4 3 2 5 9 20 28 34 37 28 17 18 32 38 26 6 30 44 57 40 12 29 12 13 14 4
17 19 16 17 13 19 34 32 28 26 30 33 23 32 22 10 25 42 34 41 51 20 10 22 26 1 0
19 19 22 25 23 13 9 20 15 19 25 25 40 28 30 22 15 1 42 15 22 21 32 29 13 3 3